Regional Weather Roundup
Issued by NWS

Home | Current Version | Previous Version | Graphics & Text | Print | Product List | Glossary On
Versions: 1 2 3 4 5 6 7 8 9 10 11 12 13 14 15 16 17 18 19 20 21 22 23 24 25 26 27 28 29 30 31 32 33 34 35 36 37 38 39 40 41 42 43 44 45 46 47 48 49 50
452
ASUS44 KMEG 180510
RWRTN
TENNESSEE HOURLY STATE WEATHER ROUNDUP
NATIONAL WEATHER SERVICE MEMPHIS TN
1100 PM CST SUN DEC 17 2017

TNZ002-004-019-021-049-052-054-088>092-180600-
WEST TENNESSEE

CITY           SKY/WX    TMP DP  RH WIND       PRES   REMARKS
MEMPHIS INTL   CLOUDY    47  46  97 SW3       30.13F
NWS MEMPHIS      N/A     47 N/A N/A MISG        N/A
JACKSON        CLOUDY    47  47 100 S3        30.14F FOG
DYERSBURG      CLOUDY    45  44  97 SW3       30.15S
SOMERVILLE     CLOUDY    46  46 100 CALM      30.13S FOG
COVINGTON      CLOUDY    46  45  93 SW5       30.14F FOG
UNION CITY     CLOUDY    46  45  93 CALM      30.13S
BOLIVAR        CLOUDY    48  46  93 CALM      30.13F FOG
PARIS          CLOUDY    45  45 100 S7        30.12S
HUNTINGDON     CLOUDY    46  46 100 S5        30.12F
LEXINGTON      FOG       46  46 100 CALM      30.14S VSB 3/4
SELMER         FOG       46  46 100 CALM      30.14R VSB 3/4
SAVANNAH       CLOUDY    48  46  93 CALM      30.14R FOG
$$

TNZ008-025-027-028-033-062-065-066-180600-
NORTH MIDDLE TENNESSEE

CITY           SKY/WX    TMP DP  RH WIND       PRES   REMARKS
NASHVILLE      FOG       47  46  97 CALM      30.15S VSB 3/4
PORTLAND       CLOUDY    45  45 100 S5        30.13F FOG
CLARKSVILLE    CLOUDY    45  42  89 CALM      30.13F FOG
SMYRNA         CLOUDY    46  46 100 SE3       30.16F FOG
COOKEVILLE     CLOUDY    46  45  93 CALM      30.14S FOG
GALLATIN       CLOUDY    45  43  93 CALM      30.17F FOG
CROSSVILLE     CLOUDY    42  41  96 S3        30.15S FOG
$$

TNZ061-075-076-078-094-096-097-180600-
SOUTH MIDDLE TENNESSEE

CITY           SKY/WX    TMP DP  RH WIND       PRES   REMARKS
FAYETTEVILLE   FOG       46  46 100 S3        30.13F VSB 1/2
TULLAHOMA      FOG       46  45  93 CALM      30.13F VSB 1/4
MCMINNVILLE    FOG       46  46 100 CALM      30.14F VSB 1/2
COLUMBIA       CLOUDY    46  46 100 CALM      30.13R FOG
SHELBYVILLE    CLOUDY    46  46 100 CALM      30.14F FOG
$$

TNZ017-018-042-046-047-180600-
NORTHEAST TENNESSEE

CITY           SKY/WX    TMP DP  RH WIND       PRES   REMARKS
TRI CITIES     CLOUDY    39  39 100 CALM      30.19F FOG
ELIZABETHTON   FOG       39  39 100 CALM      30.19S VSB 1
$$

TNZ012-013-036-069-073-074-180600-
CENTRAL EAST TENNESSEE

CITY           SKY/WX    TMP DP  RH WIND       PRES   REMARKS
KNOXVILLE      FOG       40  40 100 CALM      30.17F VSB 1
OAK RIDGE      CLOUDY    42  42 100 CALM      30.19F FOG
DOWNTOWN KNOXV   N/A     41  41 100 E3        30.20F FOG
GATLINBURG     CLOUDY    39  39 100 CALM      30.19F FOG
MORRISTOWN     FOG       39  39 100 CALM      30.17F VSB 1/2
JACKSBORO      CLOUDY    43  41  93 NE3       30.20F
$$

TNZ083-085-099-180600-
SOUTHEAST TENNESSEE

CITY           SKY/WX    TMP DP  RH WIND       PRES   REMARKS
CHATTANOOGA    FOG       43  41  93 CALM      30.18F VSB 1
DAYTON         FOG       43  43 100 CALM      30.17F VSB 1
$$

SKY/WX REPORTED AS FAIR MEANS FEW OR NO CLOUDS BELOW
12 THOUSAND FEET.





USA.gov is the U.S. government's official web portal to all federal, state and local government web resources and services.